EHI
0 0 0 0 0 0 0 0 0 0 0 0 0 0 0 0 0 0 0 0 0 0 0 0 0 0 0 0 0 0 0 0 0 0 0 0 0 0 0 0 0 0 0 0
0 0 0 0 0 0 0 0 0 0 0 0 0 0 0 0 0 0 0 0 0 0 0 0 0 0 0 0 0 0 0 0 0 0 0 0 0 0 0 0 0 0 0 0
0 0 0 0 0 0 0 0 0 0 0 0 0 0 0 0 0 0 0 0 0 0 0 0 0 0 0 0 0 0 0 0 0 0 0 0 0 0 0 0 0 0 0 0
0 0 0 0 0 0 0 0 0 0 0 0 0 0 0 0 0 0 0 0 0 0 0 0 0 0 0 0 0 0 0 0 0 0 0 0 0 0 0 0 0 0 0 0
0 0 0 0 0 0 0 0 0 0 0 0 0 0 0 0 0 0 0 0 0 0 0 0 0 0 0 0 0 0 0 0 0 0 0 0 0 0 0 0 0 0 0 0
0 0 0 0 0 0 0 0 0 0 0 0 0 0 0 0 0 0 0 0 0 0 0 0 0 0 0 0 0 0 0 0 0 0 0 0 0 0 0 0 0 0 0 0
0 0 0 0 0 0 0 0 0 0 0 0 0 0 0 0 0 0 0 0 0 0 0 0 0 0 0 0 0 0 0 0 0 0 0 0 0 0 0 0 0 0 0 0
0 0 0 0 0 0 0 0 0 0 0 0 0 0 0 0 0 0 0 0 0 0 0 0 0 0 0 0 0 0 0 0 0 0 0 0 0 0 0 0 0 0 0 0
0 0 0 0 0 0 0 0 0 0 0 0 0 0 0 0 0 0 0 0 0 0 0 0 0 0 0 0 0 0 0 0 0 0 0 0 0 0 0 0 0 0 0 0
0 0 0 0 0 0 0 0 0 0 0 0 0 0 0 0 0 0 0 0 0 0 0 0 0 0 0 0 0 0 0 0 0 0 0 0 0 0 0 0 0 0 0 0
0 0 0 0 0 0 0 0 0 0 0 0 0 0 0 0 0 0 0 0 0 0 0 0 0 0 0 0 0 0 0 0 0 0 0 0 0 0 0 0 0 0 0 0
0 0 0 0 0 0 0 0 0 0 0 0 0 0 0 0 0 0 0 0 0 0 0 0 0 0 0 0 0 0 0 0 0 0 0 0 0 0 0 0 0 0 0 0
0 0 0 0 0 0 0 0 0 0 0 0 0 0 0 0 0 0 0 0 0 0 0 0 0 0 0 0 0 0 0 0 0 0 0 0 0 0 0 0 0 0 0 0
0 0 0 0 0 0 0 0 0 0 0 0 0 0 0 0 0 0 0 0 0 0 0 0 0 0 0 0 0 0 0 0 0 0 0 0 0 0 0 0 0 0 0 0
0 0 0 0 0 0 0 0 0 0 0 0 0 0 0 0 0 0 0 0 0 0 0 0 0 0 0 0 0 0 0 0 0 0 0 0 0 0 0 0 0 0 0 0
0 0 0 0 0 0 0 0 0 0 0 0 0 0 0 0 0 0 0 0 0 0 0 0 0 0 0 0 0 0 0 0 0 0 0 0 0 0 0 0 0 0 0 0
0 0 0 0 0 0 0 0 0 0 0 0 0 0 0 0 0 0 0 0 0 0 0 0 0 0 0 0 0 0 0 0 0 0 0 0 0 0 0 0 0 0 0 0
0 0 0 0 0 0 0 0 0 0 0 0 0 0 0 0 0 0 0 0 0 0 0 0 0 0 0 0 0 0 0 0 0 0 0 0 0 0 0 0 0 0 0 0
0 0 0 0 0 0 0 0 0 0 0 0 0 0 0 0 0 0 0 0 0 0 0 0 0 0 0 0 0 0 0 0 0 0 0 0 0 0 0 0 0 0 0 0
0 0 0 0 0 0 0 0 0 0 0 0 0 0 0 0 0 0 0 0 0 0 0 0 0 0 0 0 0 0 0 0 0 0 0 0 0 0 0 0 0 0 0 0
0 0 0 0 0 0 0 0 0 0 0 0 0 0 0 0 0 0 0 0 0 0 0 0 0 0 0 0 0 0 0 0 0 0 0 0 0 0 0 0 0 0 0 0
0 0 0 0 0 0 0 0 0 0 0 0 0 0 0 0 0 0 0 0 0 0 0 0 0 0 0 0 0 0 0 0 0 0 0 0 0 0 0 0 0 0 0 0
0 0 0 0 0 0 0 0 0 0 0 0 0 0 0 0 0 0 0 0 0 0 0 0 0 0 0 0 0 0 0 0 0 0 0 0 0 0 0 0 0 0 0 0
0 0 0 0 0 0 0 0 0 0 0 0 0 0 0 0 0 0 0 0 0 0 0 0 0 0 0 0 0 0 0 0 0 0 0 0 0 0 0 0 0 0 0 0
0 0 0 0 0 0 0 0 0 0 0 0 0 0 0 0 0 0 0 0 0 0 0 0 0 0 0 0 0 0 0 0 0 0 0 0 0 0 0 0 0 0 0 0
0 0 0 0 0 0 0 0 0 0 0 0 0 0 0 0 0 0 0 0 0 0 0 0 0 0 0 0 0 0 0 0 0 0 0 0 0 0 0 0 0 0 0 0
Wind_Speed
1 2 4 8 8 7 4 5 8 9 5 4 8 12 14 7 1 2 2 4 6 6 7 7 5 1 4 7 9 12 13 12 10 7 9 10 11 9 8 9 10 11 11 12
3 5 10 6 5 5 5 5 7 7 4 3 7 10 8 2 3 4 4 4 5 7 9 9 8 5 1 4 7 9 11 11 12 12 10 7 6 5 6 6 8 10 12 12
7 8 3 4 4 4 5 5 6 5 8 5 5 8 5 3 3 3 3 2 3 5 6 8 8 5 3 2 5 7 9 11 11 10 5 2 2 1 3 6 7 10 12 13
7 7 4 5 5 4 5 4 3 2 4 5 3 4 6 1 0 1 1 2 3 4 5 5 6 6 5 3 2 3 5 7 8 8 7 9 9 11 11 9 8 9 11 13
5 2 3 4 5 5 5 1 2 1 1 4 2 2 9 2 4 4 3 1 1 2 4 4 5 5 6 5 3 1 1 3 5 7 9 9 11 12 7 5 7 9 9 12
7 3 3 4 1 1 1 4 4 4 4 3 3 4 7 5 8 6 4 3 1 1 3 4 4 5 6 6 6 4 2 1 3 6 7 9 12 11 9 9 9 9 8 9
4 2 2 3 2 1 4 5 5 5 4 5 3 3 10 6 5 8 8 5 2 1 1 3 4 5 6 6 6 5 4 3 2 4 7 9 12 11 12 12 10 10 8 9
2 5 4 3 5 4 3 6 5 3 4 6 6 5 8 5 2 5 5 4 2 1 0 1 2 2 3 4 5 5 4 4 3 4 6 7 9 8 9 11 10 10 10 10
5 4 1 2 2 5 3 3 5 5 1 4 7 8 7 4 5 4 3 3 3 2 2 1 1 2 3 4 4 4 4 4 5 5 5 6 7 8 10 10 9 9 10 9
7 3 1 1 2 1 2 5 4 3 2 4 7 7 4 3 3 3 3 5 5 3 2 1 1 2 3 3 3 4 4 4 5 5 5 5 6 7 8 7 9 9 10 10
4 4 1 1 5 6 4 3 4 4 4 4 4 9 5 4 5 5 6 6 5 4 3 2 2 3 3 4 4 4 5 5 5 6 6 6 6 6 6 6 8 8 8 8
4 5 3 6 4 3 7 7 8 5 5 5 4 10 4 3 4 4 5 4 3 3 2 2 3 4 4 5 5 5 5 5 6 6 6 6 6 6 7 7 8 8 8 8
5 6 1 6 3 1 2 4 5 4 3 4 5 10 3 1 1 0 1 1 1 1 1 2 3 4 5 5 5 6 6 6 6 6 6 6 7 7 8 8 8 8 8 8
6 5 7 8 6 3 3 4 4 5 4 7 11 13 8 8 7 3 0 0 1 2 2 3 3 5 6 6 6 6 7 6 6 6 6 7 8 8 8 8 8 8 8 8
6 4 5 6 5 4 6 9 8 9 10 11 10 11 12 8 4 2 0 1 2 2 3 4 5 5 6 6 6 6 7 7 6 6 7 8 8 8 8 8 8 8 8 9
4 4 2 3 5 5 10 13 12 11 9 10 11 13 6 1 3 1 1 1 1 3 4 5 6 7 7 7 6 6 7 7 7 7 8 9 8 8 8 9 8 8 9 9
5 6 3 4 3 6 11 10 7 6 7 8 9 6 1 2 1 0 0 0 2 4 6 7 7 7 7 7 6 6 7 7 7 8 9 9 9 9 9 9 9 9 9 9
8 7 4 2 0 9 10 3 3 4 3 2 1 1 2 1 2 2 2 1 4 6 7 7 7 7 6 5 6 6 7 7 8 8 9 9 9 10 10 9 10 10 9 9
6 8 5 4 4 10 10 5 2 2 0 1 3 1 0 1 2 3 2 2 4 6 7 7 7 6 6 6 6 7 8 8 8 9 10 10 10 10 10 10 11 10 9 9
3 5 6 5 5 9 9 4 1 2 2 0 2 1 2 2 3 5 5 6 7 8 7 6 6 5 6 7 6 7 9 9 10 10 10 10 10 11 11 12 11 10 9 10
4 3 5 6 5 10 8 5 2 3 4 0 2 1 1 2 6 7 7 7 7 8 8 7 6 6 7 7 7 8 9 10 11 11 11 11 10 11 11 11 10 10 10 10
8 7 6 6 6 11 4 2 3 3 1 1 0 2 4 6 8 8 7 7 7 7 7 6 6 7 7 7 7 10 11 12 11 11 11 11 11 10 10 10 11 10 11 11
7 9 8 10 9 3 2 4 3 3 2 2 3 5 6 6 6 6 6 7 7 7 7 6 6 8 8 8 7 11 13 12 12 12 11 11 11 10 9 10 11 11 9 9
3 3 4 4 4 1 3 4 2 2 3 4 4 5 4 5 6 7 7 6 7 6 7 6 7 9 11 10 9 10 13 13 13 13 12 11 11 11 9 8 8 9 9 10
4 2 2 4 3 1 2 2 2 2 1 2 3 3 4 5 6 6 6 7 6 6 6 6 8 10 13 12 11 11 11 12 12 13 12 11 10 11 10 9 9 11 10 12
5 5 5 6 4 3 3 2 1 2 3 3 3 4 5 4 6 6 6 6 6 8 8 9 10 11 13 13 13 12 10 10 12 12 11 9 9 9 9 10 11 15 18 23
Wind_Direction
40 82 222 222 208 214 235 248 270 267 274 286 265 276 290 303 97 101 57 28 21 3 339 348 350 269 192 195 197 200 202 202 188 185 194 201 212 210 210 212 209 206 206 204
20 257 239 228 218 216 236 269 280 291 325 301 288 292 300 313 145 136 108 59 31 13 5 4 10 26 146 201 205 204 205 199 196 203 204 204 209 212 212 213 213 209 209 207
219 245 246 196 214 240 260 244 259 285 327 344 350 334 348 11 64 81 72 53 32 31 17 3 5 11 8 258 223 214 210 204 203 201 183 176 165 242 213 216 218 213 210 211
236 251 215 220 237 208 266 253 240 303 2 314 21 311 291 283 308 117 72 33 30 24 20 11 6 5 354 318 274 235 217 207 202 189 188 195 207 221 223 222 222 216 212 215
262 233 194 218 231 191 233 293 274 266 113 318 310 212 281 265 221 219 213 214 38 25 21 14 5 360 360 357 1 339 243 217 201 195 202 209 225 235 238 227 228 226 222 221
246 248 217 210 174 166 51 35 42 48 64 316 249 180 276 225 210 198 202 210 187 33 22 14 7 11 8 9 18 24 18 286 219 208 212 219 231 239 243 238 235 235 232 228
300 252 221 140 125 56 71 64 11 350 2 267 277 224 254 252 214 176 176 185 191 155 40 16 18 15 9 11 13 15 11 328 275 228 227 229 236 240 243 245 244 243 242 237
281 285 227 193 181 182 182 138 157 235 258 291 316 254 265 307 103 123 141 161 176 186 284 345 2 6 357 8 11 7 358 327 303 261 249 244 242 243 249 250 246 246 248 245
196 260 5 183 212 162 164 178 172 145 267 278 286 293 311 33 76 104 133 160 196 217 238 271 334 345 347 353 350 340 334 320 309 288 271 263 253 246 252 256 253 254 254 253
163 227 284 41 75 30 148 145 106 134 226 275 291 285 245 203 194 184 196 211 221 227 238 256 321 332 334 331 327 328 318 304 299 298 285 276 270 260 258 264 263 260 261 258
138 172 273 304 205 204 159 178 160 151 166 181 266 272 233 200 190 190 214 220 218 221 234 265 305 318 325 330 332 330 325 314 307 301 292 289 286 283 278 270 267 267 268 265
130 126 238 258 249 207 183 187 155 167 225 195 207 267 264 170 173 180 208 224 231 238 247 270 304 325 332 330 325 322 317 312 303 300 298 291 290 292 287 280 276 274 273 270
131 117 20 334 335 46 193 188 173 151 153 190 205 260 282 166 342 17 163 216 267 285 295 310 323 323 317 312 309 307 306 303 303 305 306 304 300 296 290 284 283 281 277 277
113 140 176 209 216 201 259 253 216 177 202 231 228 251 281 301 312 316 2 292 305 318 317 320 314 305 302 301 299 300 303 303 305 307 306 300 295 291 287 285 284 281 279 278
117 178 221 242 251 242 243 250 240 223 215 232 249 253 267 270 258 208 170 358 357 342 332 321 308 299 299 300 300 302 303 305 307 307 304 295 292 291 290 288 284 282 280 277
119 162 196 273 271 279 275 263 250 242 231 236 260 272 276 161 132 124 35 9 347 317 309 304 301 298 295 294 296 300 300 302 305 303 298 296 297 297 294 289 286 284 282 280
151 146 151 262 304 340 279 255 234 226 224 212 232 245 165 124 133 270 312 336 294 294 291 291 290 285 285 286 290 295 294 299 303 300 298 299 298 296 293 291 290 286 284 280
148 147 153 203 6 249 246 240 226 237 259 238 181 121 129 197 255 261 186 219 287 290 288 285 281 282 284 287 293 293 297 302 302 300 298 297 296 293 292 291 288 285 281 279
160 149 150 157 224 277 289 282 226 185 267 63 113 106 329 292 335 304 238 265 277 279 279 277 275 277 284 292 295 302 304 304 303 300 298 296 294 293 293 291 288 286 285 283
100 141 148 163 199 245 254 265 269 80 242 278 107 71 348 25 347 281 280 295 292 290 288 287 290 293 297 299 305 305 302 302 299 297 295 295 292 290 291 289 288 286 284 283
118 139 172 175 216 260 257 268 130 192 247 10 64 42 347 246 238 257 280 285 282 286 290 293 298 297 293 299 306 302 301 298 295 294 294 294 290 288 289 288 287 289 288 287
170 166 180 162 200 250 262 120 140 197 138 96 251 260 259 255 263 274 281 283 290 294 295 299 300 297 296 300 303 301 299 297 296 294 294 293 290 289 294 291 292 290 289 290
194 187 180 189 207 215 89 107 110 130 160 229 248 260 261 267 275 283 286 289 291 292 294 296 295 298 299 297 295 296 300 301 301 298 295 294 293 289 288 289 293 295 291 289
253 156 159 225 258 147 114 116 125 184 211 240 253 266 271 278 286 291 289 290 294 295 298 298 303 304 304 302 295 288 295 300 300 299 298 297 297 297 291 285 287 290 291 289
233 147 161 247 268 111 148 168 205 224 245 276 287 276 282 289 293 292 294 295 294 294 294 295 297 299 301 303 299 295 295 299 299 298 297 298 294 294 296 290 286 289 281 282
205 185 189 229 223 194 248 259 283 317 308 298 305 310 313 304 294 298 296 292 293 296 298 300 299 298 301 303 302 301 298 296 298 302 301 299 297 296 294 296 296 290 289 293